Theta_e
304 303 303 304 305 307 309 308 308 310 308 307 306 307 307 306 304 303 303 303 303 303 304 305 307 307 309 331 334 333 331 329 330 316 313 308 309 308 307 304 302 301 300 300
304 304 303 303 303 305 306 306 308 307 309 306 307 307 307 306 305 306 306 304 303 304 303 303 304 306 316 329 328 327 326 323 323 319 312 309 307 304 305 303 301 300 300 300
304 305 306 305 305 306 305 305 306 307 309 307 307 310 309 309 308 306 306 306 305 304 305 304 302 306 319 323 324 322 321 317 319 316 310 306 304 303 302 301 300 300 300 300
306 306 305 307 308 306 307 306 308 308 310 311 309 314 311 310 310 308 309 307 307 305 304 304 303 304 316 318 321 319 316 315 314 315 310 309 303 302 302 301 301 300 300 299
308 307 308 310 309 308 312 306 308 309 309 307 310 307 312 311 312 311 308 307 306 306 304 304 302 304 314 315 316 315 313 311 311 309 311 305 304 303 302 301 301 300 299 299
307 306 308 309 308 304 308 311 313 309 305 307 312 312 313 312 311 311 309 308 307 305 304 304 302 304 309 309 310 311 310 308 308 307 306 304 305 302 301 301 300 299 299 298
306 306 307 306 308 308 310 313 317 317 314 316 309 310 313 310 309 309 309 308 306 303 300 300 301 302 301 303 304 306 306 305 305 304 305 303 303 301 301 301 300 299 298 298
309 306 306 306 305 310 309 314 317 317 316 313 306 314 312 308 306 307 306 307 305 301 300 300 301 301 300 300 302 302 302 302 302 302 302 302 301 302 301 300 299 299 298 297
302 306 303 304 303 306 311 312 309 313 312 316 313 310 310 307 305 302 302 302 302 300 300 300 300 300 300 300 300 301 301 301 301 301 302 302 301 300 300 299 298 298 297 296
299 299 302 304 304 305 308 309 311 312 314 316 316 311 313 307 304 303 301 301 300 299 299 299 299 299 300 300 300 301 302 302 302 301 301 300 300 300 299 298 297 296 296 296
296 296 299 303 304 305 305 307 309 311 312 316 319 310 304 302 302 302 301 299 300 299 298 298 298 299 299 300 300 300 300 301 300 300 299 299 299 298 297 297 296 296 296 295
294 298 297 299 297 300 303 304 306 309 309 311 313 313 306 308 306 305 304 298 299 299 297 297 297 298 299 299 299 299 300 300 299 299 299 298 298 297 296 296 295 295 295 294
295 290 293 292 292 293 296 295 299 301 308 309 311 314 306 306 305 305 304 304 298 298 297 297 296 296 297 298 299 299 299 299 299 298 298 297 297 296 296 295 295 295 294 293
292 292 291 291 293 292 293 296 294 294 302 305 307 307 306 306 304 304 303 302 302 297 297 297 296 296 297 298 298 298 299 299 299 298 297 296 296 296 296 295 294 294 293 293
289 283 289 289 291 290 294 292 292 292 294 302 302 301 301 300 301 302 303 304 304 301 299 298 297 296 296 297 298 298 298 299 298 298 297 296 296 296 295 294 294 293 293 292
289 287 286 287 288 291 291 291 290 293 298 300 302 302 295 295 295 300 303 304 302 301 301 299 299 297 296 298 298 297 298 298 298 297 296 296 296 296 295 294 294 293 292 292
287 289 280 287 287 285 285 288 292 294 294 298 299 296 295 295 295 296 296 296 298 299 298 297 297 297 297 298 299 298 297 298 297 297 296 296 296 296 295 294 294 293 292 292
287 285 289 287 278 285 288 288 290 292 293 292 293 293 291 290 293 294 293 294 295 294 295 296 296 297 298 298 298 298 298 297 296 296 296 296 296 296 295 294 294 293 293 292
289 289 288 286 283 288 287 289 290 290 292 290 290 289 289 289 290 295 292 292 293 293 293 293 295 297 298 298 297 297 296 296 296 296 295 295 296 296 294 294 294 293 293 292
287 286 289 284 284 287 286 289 288 290 291 289 289 288 288 288 287 289 290 292 292 292 292 292 293 294 297 298 297 296 296 296 295 296 296 295 296 296 294 294 294 293 292 292
276 269 279 277 276 279 287 288 287 288 290 289 289 288 286 288 289 289 290 291 291 290 291 291 291 291 293 295 296 295 295 294 296 296 295 295 295 295 294 294 293 293 292 291
282 276 280 269 271 281 285 286 287 287 287 287 287 287 287 287 289 289 288 289 289 289 289 290 290 289 291 292 295 294 294 295 294 294 295 296 295 295 294 293 292 291 291 291
283 284 281 281 284 286 286 287 287 286 286 286 286 286 286 286 288 286 288 288 288 289 289 290 289 288 289 291 292 293 294 294 294 294 296 295 294 294 293 292 290 290 290 290
285 285 285 286 287 287 287 287 286 285 285 286 286 285 285 287 286 287 287 287 288 288 289 289 288 288 289 290 291 291 293 294 294 295 294 293 292 292 292 290 290 291 291 290
287 285 286 286 286 286 286 286 287 287 286 285 285 285 285 285 287 287 287 287 287 287 289 289 288 288 288 290 290 290 290 293 292 292 291 290 291 291 289 290 290 291 292 292
287 287 286 286 286 286 286 287 286 286 286 286 285 285 286 285 286 286 286 286 287 288 288 287 287 287 288 289 289 290 290 290 291 289 289 288 288 288 288 288 289 290 291 290
Wind_Speed
2 2 6 10 12 6 4 5 6 3 3 5 8 14 16 11 6 8 9 9 9 14 12 24 28 23 23 29 36 39 39 42 43 36 35 31 31 28 23 18 16 13 11 10
5 6 10 6 7 8 12 10 10 7 3 6 7 14 11 12 10 14 14 12 12 7 8 9 21 23 29 34 36 39 42 46 44 43 35 32 33 28 24 20 16 12 10 8
8 8 4 3 8 10 11 13 5 11 2 4 4 16 10 10 13 10 14 15 14 15 14 11 11 25 31 35 39 41 43 42 44 41 36 29 26 26 21 20 17 13 10 8
8 6 10 15 11 5 12 7 12 11 3 7 3 12 9 6 17 13 18 16 17 16 13 11 12 16 28 33 37 39 42 43 41 42 40 40 31 25 22 24 18 14 10 9
7 9 14 12 6 7 7 7 6 6 5 3 6 1 5 6 12 10 13 16 18 18 15 16 15 21 27 34 37 39 41 40 40 39 41 40 31 24 27 23 19 15 13 10
14 4 4 6 11 3 4 1 9 6 2 4 24 11 21 11 9 6 8 9 13 12 12 12 14 22 25 31 35 38 39 38 37 38 38 37 33 29 29 25 21 18 15 12
14 9 5 4 5 3 3 2 2 5 4 7 4 8 21 4 4 6 9 10 9 7 8 9 13 11 19 26 32 35 37 36 37 37 36 34 32 30 31 28 25 22 18 15
7 7 8 7 3 2 2 4 5 6 4 5 3 8 12 4 9 12 11 10 5 8 9 10 11 13 20 25 32 30 34 34 34 33 34 30 30 30 27 26 24 21 18 15
6 6 14 12 4 6 1 5 4 6 3 3 4 6 10 6 7 9 8 6 6 6 7 9 8 14 19 23 27 34 35 34 33 33 31 30 29 28 27 24 21 20 17 14
5 13 5 5 4 5 3 3 3 3 4 6 3 4 5 15 16 14 10 5 1 4 7 6 7 12 17 23 30 34 37 36 32 32 31 31 29 27 26 24 22 19 17 14
9 5 11 6 2 1 3 3 5 4 4 4 2 2 6 7 11 18 12 7 2 4 6 6 6 11 18 24 28 30 32 32 31 31 30 29 28 26 25 24 21 19 16 14
5 6 8 16 18 11 6 11 11 5 4 4 5 7 4 11 15 19 20 11 2 2 4 6 7 13 17 22 26 28 30 31 31 31 30 29 28 26 25 23 21 18 17 14
8 4 6 12 6 8 5 11 15 19 3 8 7 2 3 9 16 18 20 22 10 3 6 6 6 6 11 18 24 29 30 30 29 29 29 28 28 27 25 23 20 18 17 15
2 2 6 8 12 9 17 16 15 10 7 6 7 11 9 14 14 12 17 17 17 6 6 0 4 6 13 19 24 27 29 30 30 30 30 30 29 27 25 22 20 18 16 14
0 6 11 14 12 15 17 18 21 19 16 8 10 15 18 18 16 14 8 4 10 5 7 4 3 4 9 16 22 25 28 30 31 31 30 30 28 26 24 22 20 17 16 14
3 8 8 14 17 13 19 15 21 17 7 9 12 11 16 16 20 16 13 6 9 7 9 10 10 7 8 15 18 22 27 30 32 32 31 28 27 26 24 22 20 18 16 14
6 7 1 15 9 5 6 8 10 13 5 7 5 8 15 20 22 15 17 18 15 16 11 6 8 9 16 20 27 25 26 29 32 32 31 30 29 28 24 22 21 19 17 14
8 4 4 8 3 6 6 7 9 7 6 7 7 11 11 12 15 14 19 18 17 15 15 11 7 12 22 26 25 26 27 29 29 30 31 32 31 28 27 25 23 20 17 14
9 4 4 2 3 5 7 4 4 5 8 8 4 9 9 13 13 4 19 15 13 11 14 16 17 18 16 25 26 26 25 28 31 31 29 32 32 30 29 27 26 22 19 16
2 4 4 4 3 4 6 6 5 5 10 4 3 10 8 13 11 10 13 10 12 17 18 21 26 20 13 22 23 27 29 33 33 40 36 33 34 32 32 30 28 24 19 17
4 4 4 5 4 8 9 6 4 5 5 13 8 7 7 5 6 11 11 9 12 16 21 26 25 23 20 12 20 26 29 30 43 37 37 37 34 35 33 31 29 24 21 17
5 2 6 2 2 8 7 5 5 5 6 10 12 8 12 12 8 8 11 10 9 12 21 26 20 21 25 15 15 23 25 33 26 32 35 37 37 35 33 30 28 24 21 18
4 8 4 8 7 9 7 12 15 10 13 12 7 12 12 13 8 7 7 11 9 12 19 25 24 24 26 19 14 21 26 23 26 29 37 38 37 35 33 34 31 26 23 19
6 8 7 11 15 17 17 17 12 9 10 13 13 12 9 10 13 11 8 8 11 16 15 22 22 20 25 26 19 22 21 20 28 35 36 36 37 37 35 35 31 28 25 22
10 3 15 16 20 18 19 15 17 16 11 9 10 10 10 10 16 17 15 12 12 18 18 20 20 20 26 30 28 21 21 22 28 30 29 32 36 39 38 37 34 29 23 21
13 19 11 14 21 13 17 18 16 12 11 14 11 13 13 10 14 15 14 15 15 14 19 21 24 24 28 29 27 20 19 23 27 25 28 31 32 34 35 34 28 25 19 17
Wind_Direction
290 156 213 216 224 243 251 244 246 246 218 193 235 244 250 261 256 252 243 235 229 222 225 222 220 214 202 199 194 190 182 176 175 170 162 162 162 165 172 175 180 179 181 186
324 264 248 234 248 260 268 273 262 284 273 204 268 262 251 244 236 228 234 235 232 225 215 215 213 201 195 191 186 179 178 176 176 174 172 169 171 166 169 172 175 177 183 185
250 269 355 198 255 255 252 248 259 247 287 255 339 279 246 248 238 232 231 227 228 219 213 212 199 191 190 183 182 178 179 176 176 176 175 168 163 153 157 168 174 172 179 179
280 332 316 288 265 224 261 215 238 240 151 245 164 274 220 216 236 225 234 223 224 219 212 207 202 186 187 187 185 182 179 179 180 182 177 174 167 165 181 174 172 166 167 167
259 295 304 310 297 258 258 327 272 229 198 94 224 309 254 196 239 236 235 227 223 221 202 195 195 190 187 187 182 184 184 180 182 181 180 176 173 173 171 168 167 162 160 161
258 280 264 231 234 246 307 262 314 347 82 207 238 195 273 234 232 236 240 234 225 215 206 199 180 167 175 181 180 182 181 183 184 182 182 185 178 171 164 165 166 164 160 160
303 276 271 267 270 253 143 102 251 222 206 238 163 177 240 255 286 263 260 263 242 198 169 161 163 150 154 163 169 175 178 176 181 184 182 187 179 178 172 171 170 166 165 165
328 329 358 345 350 160 279 262 228 244 206 241 139 211 242 223 261 264 248 252 264 194 183 174 163 152 156 159 165 166 169 171 178 182 178 178 180 175 174 173 172 169 168 165
301 277 325 288 249 147 97 248 321 298 242 252 198 277 298 2 327 319 308 300 261 188 164 154 139 145 150 153 158 162 164 167 171 173 169 168 172 171 169 168 168 165 164 162
311 303 296 296 332 246 199 146 299 263 251 254 241 280 264 358 337 325 304 287 134 106 96 103 119 137 151 155 160 165 169 167 168 168 167 167 169 168 166 164 164 163 161 164
296 235 292 324 257 284 319 280 232 244 258 302 295 237 350 357 352 348 322 314 303 107 116 127 125 140 149 155 160 165 169 165 164 165 166 165 164 165 164 164 163 163 163 165
278 301 289 279 281 297 271 266 259 265 251 286 289 261 341 19 11 7 4 336 295 162 137 139 142 141 147 153 163 167 169 168 169 169 167 166 165 165 165 165 164 165 164 160
336 320 317 330 1 31 348 322 343 331 253 240 243 300 311 33 14 2 352 349 328 297 144 141 134 144 153 160 167 173 174 174 172 171 169 168 168 169 169 167 165 165 162 160
357 274 279 276 283 299 296 319 318 318 297 328 277 304 319 330 332 356 332 339 332 4 335 59 150 165 171 175 175 176 177 179 177 176 175 174 174 174 171 168 166 165 164 163
280 234 285 268 260 285 272 295 311 303 270 264 296 308 323 323 310 304 256 238 305 354 338 303 263 215 178 175 180 182 183 183 182 181 182 182 178 175 172 170 169 167 170 170
217 273 271 286 286 265 283 285 289 290 300 283 286 274 351 339 355 329 297 206 275 210 224 218 211 191 206 185 185 185 187 188 188 187 188 185 181 178 176 174 170 174 176 174
266 261 253 272 286 309 294 245 257 276 28 321 356 353 350 352 342 349 41 19 4 344 300 246 229 202 200 203 193 197 195 192 193 193 192 187 185 183 179 179 176 180 181 178
245 224 248 271 30 271 252 278 287 358 47 26 32 1 351 344 331 30 24 4 348 345 344 316 276 228 218 216 208 201 202 199 196 197 195 192 188 186 186 185 185 185 185 185
218 234 256 250 213 288 313 358 351 345 321 338 326 341 336 343 344 337 355 355 335 328 326 321 333 298 273 230 218 205 195 201 199 204 204 198 194 190 191 190 189 188 185 189
112 245 229 325 229 265 250 272 300 270 282 300 309 331 335 344 339 322 328 334 325 324 320 327 333 336 301 266 224 202 200 202 203 203 208 208 200 197 196 198 193 189 191 193
328 339 197 270 253 285 261 271 305 265 301 323 317 289 314 295 274 301 304 302 305 305 325 334 325 324 320 288 245 207 205 211 213 209 203 206 203 202 201 200 197 190 190 192
190 157 270 70 56 291 240 283 246 277 302 299 300 271 302 286 267 285 296 305 317 316 322 330 325 319 328 316 237 220 219 227 213 210 204 206 207 203 202 200 198 190 189 195
254 193 211 184 237 256 249 272 285 283 281 285 267 285 291 287 276 269 269 306 310 306 310 319 321 318 318 314 266 237 235 216 204 200 199 212 207 204 201 199 195 186 189 196
251 228 243 266 260 263 262 272 271 258 256 272 277 272 279 279 291 291 284 291 302 306 301 306 312 310 308 312 299 263 255 227 206 203 208 204 206 200 201 202 199 191 190 198
247 180 256 271 274 277 271 264 267 274 266 256 252 250 253 263 284 289 291 288 289 292 300 303 301 301 298 305 301 287 261 230 208 199 196 194 195 195 197 201 199 197 199 202
243 250 251 261 270 270 275 281 277 272 267 271 255 265 261 253 265 274 281 280 277 280 298 303 303 297 298 299 298 291 265 234 210 193 191 191 187 189 194 197 199 200 204 204